User: anonymous   Login
Location: Unspecified
(0.0000°N, 0.0000°E)
Time: 09:02:25
(UTC+00:00)
Language:

GONETS M 05 - Orbit

View from above orbital plane
View from above orbital plane
View from above satellite
View from above satellite

Ground track
Ground track

The orbit is defined by the following mean orbital elements,

1 39249U          26145.57580159 +.00000000 +00000-0 +57566-3 0 00000
2 39249  82.4845 357.4814 0015613 263.0452  96.8852 12.42891405    04
Epoch (UTC): 25 May 2026 13:49:09
Eccentricity: 0.0015613
inclination: 82.4845°
perigee height: 1482 km
apogee height: 1507 km
right ascension of ascending node: 357.4814°
argument of perigee: 263.0452°
revolutions per day: 12.42891405
mean anomaly at epoch: 96.8852°

The dashed part of the orbit path shows where the satellite is in the earth's shadow,  

DLR